Dallas, TX

11:57 AM CST on December 02, 2016 (GMT -0600)
Redbird

Weather History for KRBD - August, 2014

Change the Weather History Date:

Saturday, August 9, 2014

  Actual Average Record
Temperature  
Mean Temperature 90 °F -  
Max Temperature 102 °F 92 °F 107 °F (2012)
Min Temperature 80 °F 72 °F 70 °F (2002)
Cooling Degree Days 25    
Growing Degree Days 40 (Base 50)    
Moisture  
Dew Point 67 °F    
Average Humidity 49    
Maximum Humidity 69    
Minimum Humidity 28    
Precipitation  
Precipitation 0.00 in - - ()
Sea Level Pressure  
Sea Level Pressure 29.92 in    
Wind  
Wind Speed 7 mph (SSE)    
Max Wind Speed 9 mph    
Max Gust Speed 20 mph    
Visibility 10 miles    
Events      
Averages and records for this station are not official NWS values.
T = Trace of Precipitation, MM = Missing Value Source: NWS Daily Summary

Daily Weather History Graph

Daily Weather History Graph

Search for Another Location

Airport or City:

Trip Planner

Search our weather history database for the weather conditions in past years. The results will help you decide how hot, cold, wet, or windy it might be!

Date:

Astronomy

Aug. 09, 2014 Rise Set
Actual Time 6:46 AM CDT 8:18 PM CDT
Civil Twilight 6:20 AM CDT 8:44 PM CDT
Nautical Twilight 5:49 AM CDT 9:16 PM CDT
Astronomical Twilight 5:15 AM CDT 9:49 PM CDT
Moon 7:22 PM CDT (8/9) 5:29 AM CDT (8/9)
Length of Visible Light 14h 24m
Length of Day
13h 31m
Waxing Gibbous, 98% of the Moon is Illuminated
Aug 9
Waxing Gibbous
Aug 10
Full
Aug 17
Last Quarter
Aug 25
New
Sep 2
First Quarter

Hourly Weather History & Observations

Time (CDT) Temp. Heat Index Dew Point Humidity Pressure Visibility Wind Dir Wind Speed Gust Speed Precip Events Conditions
12:53 AM 86.0 °F 89.4 °F 68.0 °F 55% 29.91 in 10.0 mi SSE 6.9 mph - N/A   Clear
1:53 AM 86.0 °F 90.1 °F 69.1 °F 57% 29.88 in 10.0 mi South 8.1 mph - N/A   Clear
2:53 AM 84.9 °F 89.4 °F 70.0 °F 61% 29.89 in 10.0 mi South 9.2 mph - N/A   Clear
3:53 AM 82.9 °F 87.0 °F 70.0 °F 65% 29.90 in 10.0 mi South 6.9 mph - N/A   Clear
4:53 AM 82.0 °F 85.9 °F 70.0 °F 67% 29.91 in 10.0 mi South 5.8 mph - N/A   Clear
5:53 AM 81.0 °F 84.4 °F 70.0 °F 69% 29.92 in 10.0 mi South 4.6 mph - N/A   Clear
6:53 AM 80.1 °F 82.9 °F 69.1 °F 69% 29.94 in 10.0 mi Calm Calm - N/A   Clear
7:53 AM 82.9 °F 87.0 °F 70.0 °F 65% 29.96 in 10.0 mi Calm Calm - N/A   Clear
8:53 AM 84.9 °F 89.4 °F 70.0 °F 61% 29.96 in 10.0 mi North - - N/A   Clear
9:53 AM 91.0 °F 96.6 °F 70.0 °F 50% 29.96 in 10.0 mi North - - N/A   Clear
10:53 AM 93.0 °F 99.0 °F 70.0 °F 47% 29.96 in 10.0 mi Variable 5.8 mph - N/A   Clear
12:53 PM 100.0 °F 104.2 °F 66.0 °F 33% 29.95 in 10.0 mi SSE 8.1 mph - N/A   Clear
1:53 PM 98.1 °F 101.8 °F 66.0 °F 35% 29.94 in 10.0 mi Variable 6.9 mph - N/A   Scattered Clouds
2:53 PM 100.0 °F 103.0 °F 64.0 °F 31% 29.92 in 10.0 mi South 8.1 mph 18.4 mph N/A   Partly Cloudy
3:53 PM 100.0 °F 103.6 °F 64.9 °F 32% 29.89 in 10.0 mi SSE 9.2 mph 19.6 mph N/A   Partly Cloudy
4:53 PM 100.9 °F 102.7 °F 62.1 °F 28% 29.86 in 10.0 mi Variable 4.6 mph - N/A   Clear
5:53 PM 100.0 °F 101.2 °F 61.0 °F 28% 29.86 in 10.0 mi South 6.9 mph - N/A   Clear
6:53 PM 99.0 °F 100.5 °F 62.1 °F 30% 29.87 in 10.0 mi South 8.1 mph - N/A   Clear
7:53 PM 96.1 °F 96.9 °F 62.1 °F 32% 29.88 in 10.0 mi South 5.8 mph - N/A   Clear
8:53 PM 93.0 °F 94.6 °F 64.0 °F 38% 29.89 in 10.0 mi SSE 6.9 mph - N/A   Clear
10:53 PM 89.1 °F 94.1 °F 70.0 °F 53% 29.95 in 10.0 mi ENE 9.2 mph - N/A   Clear
11:53 PM 84.9 °F 90.1 °F 71.1 °F 63% 29.96 in 10.0 mi East 8.1 mph - N/A   Clear